{"data":{"norad_id":67575,"intl_designator":"2026-016Q","name":"STARLINK-36400","alt_names":[],"object_type":"PAYLOAD","status":"ACTIVE","operator":null,"country":"US","launch_date":"2026-01-25","launch_site_code":"AFWTR","launch_vehicle":null,"mission":null,"orbit_class":"UNKNOWN","rcs_meters":null,"size_class":null,"mass_kg":null,"dimensions":null,"purposes":["comms"],"wikipedia_slug":null,"has_3d_model":false,"image_url":null,"decayed_at":null,"tle_current":{"epoch":"2026-09-19T09:58:28.773984Z","epoch_age_seconds":165988,"freshness":"FRESH","line1":"1 67575U 26016Q   26262.41561081  .00014255  00000+0  44283-3 0  9999","line2":"2 67575  97.2808 321.0829 0002325 103.5708 256.5794 15.33459368 36551","mean_motion":15.33459368,"eccentricity":0.0002325,"inclination_deg":97.2808,"raan_deg":321.0829,"arg_perigee_deg":103.5708,"mean_anomaly_deg":256.5794,"bstar":0.00044283,"rev_number":3655,"period_min":93.905324787191,"perigee_km":463.90928005118,"apogee_km":467.09157145415,"semimajor_km":6843.6374257527,"source":"CELESTRAK","updated_at":"2026-09-20T09:00:43.577047Z"}}}